Bandaranaike International Airport

Airport
ICAO code: 
VCBI
IATA Code: 
CMB
Summary
ICAO Region: 
APAC
Territory: 
Location: 
Negombo, Western Province
Serving: 
Colombo
Elevation: 
26 ft
Coordinates: 
Aerial View: 
7° 10' 52.284" N, 79° 53' 1.716" E
Metar
Observation
VCBI 260410Z 17003KT 060V210 9999 FEW018 29/23 Q1011 NOSIG
Station
Katunayake
Date/Time
2022-01-26 04:10:00
Wind direction
170°
Wind speed
03 kts
Lowest cloud amount
few clouds
Temperature
29°C
Dew point
23°C
Humidity
70%
QNH
1011 hPa
Weather condition
n/a

Colombo International Airport (commonly known as Bandaranaike International Airport, Colombo-Bandaranaike and locally as Katunayake Airport) is the main international airport serving Sri Lanka.

Climatology

Tropical monsoon climate (Köppen climate classification Am)

Runways

Designator Length Width Surface Rops
4/22 3350 45 ASP Yes/Yes
Airport map: 
Aerial View: 

SKYbrary Partners:

Safety knowledge contributed by: